| time (UTC) | temp C | wind direction | speed KPH | gust KPH | rain 1hr cm | rain 24hr cm | rain mn cm | humidity % | barometer mb |
| 20260509000042 | 29 | 196 | 8.0 | 17.7 | 0.00 | 0.00 | 0.00 | 65 | 1004.9 |
| 20260508235603 | 29 | 243 | 8.0 | 16.1 | 0.00 | 0.00 | 0.00 | 64 | 1004.9 |
| 20260508235022 | 29 | 227 | 9.7 | 16.1 | 0.00 | 0.00 | 0.00 | 64 | 1004.8 |
| 20260508234534 | 29 | 256 | 6.4 | 16.1 | 0.00 | 0.00 | 0.00 | 63 | 1004.8 |
| 20260508234105 | 29 | 236 | 6.4 | 16.1 | 0.00 | 0.00 | 0.00 | 63 | 1004.8 |
| 20260508233619 | 29 | 195 | 9.7 | 16.1 | 0.00 | 0.00 | 0.00 | 63 | 1004.8 |
| 20260508233008 | 29 | 254 | 8.0 | 16.1 | 0.00 | 0.00 | 0.00 | 63 | 1004.9 |
| 20260508232520 | 30 | 206 | 8.0 | 16.1 | 0.00 | 0.00 | 0.00 | 63 | 1004.9 |
| 20260508232110 | 30 | 220 | 6.4 | 20.9 | 0.00 | 0.00 | 0.00 | 64 | 1004.9 |
| 20260508231627 | 30 | 242 | 9.7 | 20.9 | 0.00 | 0.00 | 0.00 | 64 | 1005.0 |
| 20260508231013 | 30 | 201 | 6.4 | 16.1 | 0.00 | 0.00 | 0.00 | 65 | 1005.0 |
| 20260508230528 | 30 | 262 | 8.0 | 19.3 | 0.00 | 0.00 | 0.00 | 66 | 1005.1 |
| 20260508230045 | 30 | 201 | 11.3 | 17.7 | 0.00 | 0.00 | 0.00 | 65 | 1005.1 |
| 20260508225623 | 30 | 190 | 8.0 | 17.7 | 0.00 | 0.00 | 0.00 | 65 | 1005.1 |
| 20260508225007 | 30 | 234 | 8.0 | 16.1 | 0.00 | 0.00 | 0.00 | 66 | 1005.1 |
| 20260508224528 | 30 | 263 | 9.7 | 17.7 | 0.00 | 0.00 | 0.00 | 66 | 1005.2 |
| 20260508224046 | 30 | 221 | 9.7 | 17.7 | 0.00 | 0.00 | 0.00 | 66 | 1005.2 |
| 20260508223609 | 30 | 184 | 11.3 | 17.7 | 0.00 | 0.00 | 0.00 | 66 | 1005.2 |
| 20260508223034 | 30 | 179 | 8.0 | 24.1 | 0.00 | 0.00 | 0.00 | 66 | 1005.4 |
| 20260508222533 | 30 | 237 | 9.7 | 24.1 | 0.00 | 0.00 | 0.00 | 66 | 1005.5 |
| 20260508222104 | 30 | 240 | 12.9 | 20.9 | 0.00 | 0.00 | 0.00 | 65 | 1005.5 |
| 20260508221622 | 30 | 218 | 9.7 | 17.7 | 0.00 | 0.00 | 0.00 | 65 | 1005.5 |
| 20260508221133 | 30 | 207 | 11.3 | 20.9 | 0.00 | 0.00 | 0.00 | 65 | 1005.6 |
| 20260508220518 | 30 | 211 | 11.3 | 20.9 | 0.00 | 0.00 | 0.00 | 65 | 1005.6 |
| 20260508220053 | 30 | 213 | 9.7 | 19.3 | 0.00 | 0.00 | 0.00 | 65 | 1005.7 |
| 20260508215620 | 30 | 196 | 8.0 | 16.1 | 0.00 | 0.00 | 0.00 | 66 | 1005.7 |
| 20260508215015 | 30 | 211 | 11.3 | 16.1 | 0.00 | 0.00 | 0.00 | 65 | 1005.8 |
| 20260508214529 | 30 | 198 | 9.7 | 16.1 | 0.00 | 0.00 | 0.00 | 65 | 1005.9 |
| 20260508214048 | 30 | 177 | 9.7 | 16.1 | 0.00 | 0.00 | 0.00 | 65 | 1006.0 |
| 20260508213608 | 30 | 184 | 8.0 | 19.3 | 0.00 | 0.00 | 0.00 | 65 | 1006.0 |
| 20260508213015 | 30 | 239 | 11.3 | 20.9 | 0.00 | 0.00 | 0.00 | 64 | 1006.2 |
| 20260508212520 | 31 | 181 | 8.0 | 22.5 | 0.00 | 0.00 | 0.00 | 64 | 1006.3 |
| 20260508212055 | 30 | 198 | 11.3 | 22.5 | 0.00 | 0.00 | 0.00 | 64 | 1006.4 |
| 20260508211612 | 31 | 227 | 8.0 | 22.5 | 0.00 | 0.00 | 0.00 | 65 | 1006.3 |
| 20260508211134 | 30 | 188 | 11.3 | 22.5 | 0.00 | 0.00 | 0.00 | 65 | 1006.4 |
| 20260508210517 | 30 | 257 | 8.0 | 19.3 | 0.00 | 0.00 | 0.00 | 64 | 1006.4 |
| 20260508210050 | 30 | 248 | 9.7 | 17.7 | 0.00 | 0.00 | 0.00 | 65 | 1006.4 |
| 20260508205606 | 30 | 190 | 9.7 | 16.1 | 0.00 | 0.00 | 0.00 | 66 | 1006.4 |
| 20260508205017 | 30 | 177 | 8.0 | 19.3 | 0.00 | 0.00 | 0.00 | 65 | 1006.5 |
| 20260508204535 | 31 | 223 | 9.7 | 24.1 | 0.00 | 0.00 | 0.00 | 64 | 1006.6 |
| 20260508204131 | 31 | 255 | 9.7 | 24.1 | 0.00 | 0.00 | 0.00 | 64 | 1006.6 |
| 20260508203516 | 31 | 178 | 9.7 | 20.9 | 0.00 | 0.00 | 0.00 | 64 | 1006.6 |
| 20260508203046 | 31 | 188 | 11.3 | 20.9 | 0.00 | 0.00 | 0.00 | 63 | 1006.7 |
| 20260508202559 | 31 | 190 | 9.7 | 19.3 | 0.00 | 0.00 | 0.00 | 63 | 1006.8 |
| 20260508202016 | 31 | 221 | 8.0 | 20.9 | 0.00 | 0.00 | 0.00 | 64 | 1006.9 |
| 20260508201532 | 31 | 192 | 8.0 | 16.1 | 0.00 | 0.00 | 0.00 | 63 | 1006.9 |
| 20260508201104 | 31 | 257 | 8.0 | 16.1 | 0.00 | 0.00 | 0.00 | 63 | 1006.9 |
| 20260508200620 | 31 | 199 | 8.0 | 20.9 | 0.00 | 0.00 | 0.00 | 63 | 1007.0 |
| 20260508200014 | 31 | 224 | 6.4 | 19.3 | 0.00 | 0.00 | 0.00 | 64 | 1007.0 |
| 20260508195534 | 31 | 221 | 9.7 | 19.3 | 0.00 | 0.00 | 0.00 | 65 | 1007.0 |
| 20260508195046 | 31 | 166 | 6.4 | 19.3 | 0.00 | 0.00 | 0.00 | 65 | 1007.0 |
| 20260508194606 | 31 | 257 | 9.7 | 20.9 | 0.00 | 0.00 | 0.00 | 65 | 1007.0 |
| 20260508194008 | 31 | 218 | 8.0 | 20.9 | 0.00 | 0.00 | 0.00 | 66 | 1007.0 |
| 20260508193524 | 31 | 189 | 8.0 | 19.3 | 0.00 | 0.00 | 0.00 | 65 | 1007.0 |
| 20260508193046 | 31 | 202 | 9.7 | 16.1 | 0.00 | 0.00 | 0.00 | 65 | 1007.1 |
| 20260508192604 | 30 | 197 | 8.0 | 16.1 | 0.00 | 0.00 | 0.00 | 66 | 1007.2 |
| 20260508192008 | 30 | 211 | 9.7 | 17.7 | 0.00 | 0.00 | 0.00 | 66 | 1007.2 |
| 20260508191538 | 30 | 183 | 9.7 | 17.7 | 0.00 | 0.00 | 0.00 | 65 | 1007.3 |
| 20260508191105 | 30 | 221 | 9.7 | 17.7 | 0.00 | 0.00 | 0.00 | 64 | 1007.4 |
| 20260508190620 | 30 | 217 | 9.7 | 17.7 | 0.00 | 0.00 | 0.00 | 63 | 1007.3 |
| 20260508190035 | 30 | 227 | 9.7 | 17.7 | 0.00 | 0.00 | 0.00 | 62 | 1007.5 |
| 20260508185620 | 30 | 215 | 9.7 | 17.7 | 0.00 | 0.00 | 0.00 | 61 | 1007.6 |
| 20260508185014 | 30 | 246 | 6.4 | 20.9 | 0.00 | 0.00 | 0.00 | 62 | 1007.7 |
| 20260508184531 | 30 | 227 | 11.3 | 20.9 | 0.00 | 0.00 | 0.00 | 61 | 1007.8 |
| 20260508184048 | 30 | 212 | 9.7 | 22.5 | 0.00 | 0.00 | 0.00 | 61 | 1007.8 |
| 20260508183611 | 30 | 221 | 11.3 | 22.5 | 0.00 | 0.00 | 0.00 | 59 | 1007.8 |
| 20260508183027 | 31 | 269 | 8.0 | 22.5 | 0.00 | 0.00 | 0.00 | 60 | 1007.9 |
| 20260508182538 | 31 | 222 | 9.7 | 22.5 | 0.00 | 0.00 | 0.00 | 59 | 1008.0 |
| 20260508182043 | 31 | 177 | 9.7 | 19.3 | 0.00 | 0.00 | 0.00 | 59 | 1008.0 |
| 20260508181602 | 31 | 245 | 6.4 | 19.3 | 0.00 | 0.00 | 0.00 | 59 | 1008.0 |
| 20260508181137 | 31 | 233 | 8.0 | 19.3 | 0.00 | 0.00 | 0.00 | 59 | 1008.1 |
| 20260508180514 | 31 | 254 | 9.7 | 17.7 | 0.00 | 0.00 | 0.00 | 58 | 1008.0 |
| 20260508180048 | 31 | 180 | 8.0 | 16.1 | 0.00 | 0.00 | 0.00 | 59 | 1008.1 |
| 20260508175632 | 31 | 223 | 11.3 | 17.7 | 0.00 | 0.00 | 0.00 | 60 | 1008.1 |
| 20260508175004 | 30 | 213 | 9.7 | 19.3 | 0.00 | 0.00 | 0.00 | 62 | 1008.2 |
| 20260508174522 | 30 | 212 | 4.8 | 14.5 | 0.00 | 0.00 | 0.00 | 63 | 1008.2 |
| 20260508174058 | 30 | 247 | 6.4 | 14.5 | 0.00 | 0.00 | 0.00 | 64 | 1008.1 |
| 20260508173608 | 30 | 268 | 4.8 | 16.1 | 0.00 | 0.00 | 0.00 | 66 | 1008.2 |
| 20260508173006 | 30 | 200 | 9.7 | 19.3 | 0.00 | 0.00 | 0.00 | 67 | 1008.1 |
| 20260508172522 | 30 | 231 | 6.4 | 19.3 | 0.00 | 0.00 | 0.00 | 68 | 1008.1 |
| 20260508172053 | 30 | 219 | 9.7 | 14.5 | 0.00 | 0.00 | 0.00 | 68 | 1008.0 |
| 20260508171604 | 29 | 184 | 6.4 | 17.7 | 0.00 | 0.00 | 0.00 | 68 | 1008.1 |
| 20260508171132 | 29 | 219 | 8.0 | 17.7 | 0.00 | 0.00 | 0.00 | 68 | 1008.0 |
| 20260508170516 | 29 | 246 | 6.4 | 14.5 | 0.00 | 0.00 | 0.00 | 67 | 1008.0 |
| 20260508170057 | 29 | 253 | 6.4 | 16.1 | 0.00 | 0.00 | 0.00 | 65 | 1008.0 |
| 20260508165610 | 30 | 190 | 8.0 | 12.9 | 0.00 | 0.00 | 0.00 | 65 | 1008.1 |
| 20260508165012 | 30 | 219 | 6.4 | 12.9 | 0.00 | 0.00 | 0.00 | 64 | 1008.1 |
| 20260508164530 | 29 | 205 | 8.0 | 12.9 | 0.00 | 0.00 | 0.00 | 65 | 1008.0 |
| 20260508164102 | 29 | 184 | 8.0 | 11.3 | 0.00 | 0.00 | 0.00 | 65 | 1008.0 |
| 20260508163619 | 29 | 238 | 6.4 | 12.9 | 0.00 | 0.00 | 0.00 | 65 | 1008.0 |
| 20260508163028 | 29 | 205 | 4.8 | 9.7 | 0.00 | 0.00 | 0.00 | 67 | 1008.0 |
| 20260508162536 | 29 | 200 | 3.2 | 8.0 | 0.00 | 0.00 | 0.00 | 67 | 1007.9 |
| 20260508162045 | 28 | 282 | 3.2 | 14.5 | 0.00 | 0.00 | 0.00 | 67 | 1007.9 |
| 20260508161608 | 28 | 244 | 4.8 | 12.9 | 0.00 | 0.00 | 0.00 | 67 | 1007.9 |
| 20260508161008 | 28 | 220 | 6.4 | 12.9 | 0.00 | 0.00 | 0.00 | 66 | 1007.9 |
| 20260508160526 | 28 | 245 | 3.2 | 12.9 | 0.00 | 0.00 | 0.00 | 67 | 1007.9 |
| 20260508160040 | 28 | 214 | 6.4 | 12.9 | 0.00 | 0.00 | 0.00 | 67 | 1007.8 |
| 20260508155559 | 28 | 257 | 3.2 | 11.3 | 0.00 | 0.00 | 0.00 | 68 | 1007.8 |
| 20260508155010 | 28 | 248 | 4.8 | 11.3 | 0.00 | 0.00 | 0.00 | 69 | 1007.9 |
| 20260508154529 | 28 | 238 | 3.2 | 8.0 | 0.00 | 0.00 | 0.00 | 70 | 1007.8 |
| 20260508154057 | 27 | 194 | 4.8 | 11.3 | 0.00 | 0.00 | 0.00 | 70 | 1007.8 |
| 20260508153618 | 27 | 236 | 4.8 | 11.3 | 0.00 | 0.00 | 0.00 | 71 | 1007.9 |
| 20260508153016 | 27 | 218 | 1.6 | 11.3 | 0.00 | 0.00 | 0.00 | 71 | 1008.0 |
| 20260508152530 | 27 | 267 | 3.2 | 11.3 | 0.00 | 0.00 | 0.00 | 71 | 1007.9 |
| 20260508152054 | 27 | 269 | 4.8 | 11.3 | 0.00 | 0.00 | 0.00 | 71 | 1008.0 |
| 20260508151615 | 27 | 232 | 1.6 | 8.0 | 0.00 | 0.00 | 0.00 | 71 | 1007.9 |
| 20260508151002 | 27 | 256 | 3.2 | 11.3 | 0.00 | 0.00 | 0.00 | 71 | 1007.9 |
| 20260508150518 | 27 | 261 | 3.2 | 11.3 | 0.00 | 0.00 | 0.00 | 71 | 1007.9 |
| 20260508150053 | 27 | 238 | 3.2 | 8.0 | 0.00 | 0.00 | 0.00 | 72 | 1007.9 |
| 20260508145623 | 26 | 196 | 1.6 | 9.7 | 0.00 | 0.00 | 0.00 | 72 | 1007.9 |
| 20260508145006 | 26 | 202 | 3.2 | 9.7 | 0.00 | 0.00 | 0.00 | 73 | 1007.9 |
| 20260508144524 | 26 | 241 | 3.2 | 8.0 | 0.00 | 0.00 | 0.00 | 72 | 1007.9 |
| 20260508144100 | 26 | 203 | 4.8 | 8.0 | 0.00 | 0.00 | 0.00 | 72 | 1007.9 |
| 20260508143615 | 26 | 202 | 1.6 | 3.2 | 0.00 | 0.00 | 0.00 | 70 | 1007.9 |
| 20260508143136 | 26 | 202 | 0.0 | 4.8 | 0.00 | 0.00 | 0.00 | 70 | 1007.9 |
| 20260508142519 | 25 | 215 | 0.0 | 4.8 | 0.00 | 0.00 | 0.00 | 71 | 1007.8 |
| 20260508142051 | 25 | 215 | 1.6 | 4.8 | 0.00 | 0.00 | 0.00 | 70 | 1007.9 |
| 20260508141612 | 25 | 225 | 0.0 | 4.8 | 0.00 | 0.00 | 0.00 | 69 | 1007.9 |
| 20260508141006 | 25 | 281 | 0.0 | 4.8 | 0.00 | 0.00 | 0.00 | 70 | 1007.9 |
| 20260508140523 | 25 | 360 | 1.6 | 4.8 | 0.00 | 0.00 | 0.00 | 69 | 1007.9 |
| 20260508140107 | 24 | 360 | 0.0 | 4.8 | 0.00 | 0.00 | 0.00 | 68 | 1007.8 |
| 20260508135620 | 24 | 17 | 0.0 | 0.0 | 0.00 | 0.00 | 0.00 | 68 | 1007.7 |
| 20260508135013 | 23 | 17 | 0.0 | 0.0 | 0.00 | 0.00 | 0.00 | 68 | 1007.7 |
| 20260508134532 | 23 | 17 | 0.0 | 0.0 | 0.00 | 0.00 | 0.00 | 68 | 1007.6 |
| 20260508134052 | 23 | 17 | 0.0 | 0.0 | 0.00 | 0.00 | 0.00 | 68 | 1007.5 |
| 20260508133611 | 23 | 18 | 0.0 | 0.0 | 0.00 | 0.00 | 0.00 | 68 | 1007.5 |
| 20260508133016 | 23 | 18 | 0.0 | 0.0 | 0.00 | 0.00 | 0.00 | 68 | 1007.4 |
| 20260508132533 | 23 | 18 | 0.0 | 0.0 | 0.00 | 0.00 | 0.00 | 68 | 1007.4 |
| 20260508132050 | 23 | 18 | 0.0 | 0.0 | 0.00 | 0.00 | 0.00 | 69 | 1007.4 |
| 20260508131606 | 22 | 18 | 0.0 | 0.0 | 0.00 | 0.00 | 0.00 | 70 | 1007.5 |
| 20260508131017 | 22 | 16 | 0.0 | 0.0 | 0.00 | 0.00 | 0.00 | 70 | 1007.5 |
| 20260508130531 | 22 | 16 | 0.0 | 0.0 | 0.00 | 0.00 | 0.00 | 70 | 1007.5 |
| 20260508130058 | 22 | 16 | 0.0 | 0.0 | 0.00 | 0.00 | 0.00 | 70 | 1007.5 |
| 20260508125530 | 22 | 16 | 0.0 | 0.0 | 0.00 | 0.00 | 0.00 | 70 | 1007.5 |
| 20260508125059 | 22 | 17 | 0.0 | 0.0 | 0.00 | 0.00 | 0.00 | 70 | 1007.4 |
| 20260508124615 | 22 | 17 | 0.0 | 0.0 | 0.00 | 0.00 | 0.00 | 71 | 1007.3 |
| 20260508124002 | 22 | 17 | 0.0 | 0.0 | 0.00 | 0.00 | 0.00 | 71 | 1007.3 |
| 20260508123518 | 22 | 17 | 0.0 | 0.0 | 0.00 | 0.00 | 0.00 | 71 | 1007.2 |
| 20260508123110 | 22 | 17 | 0.0 | 1.6 | 0.00 | 0.00 | 0.00 | 71 | 1007.2 |
| 20260508122621 | 22 | 17 | 0.0 | 1.6 | 0.00 | 0.00 | 0.00 | 71 | 1007.1 |
| 20260508122005 | 22 | 17 | 0.0 | 3.2 | 0.00 | 0.00 | 0.00 | 72 | 1007.0 |
| 20260508121524 | 22 | 16 | 0.0 | 3.2 | 0.00 | 0.00 | 0.00 | 72 | 1007.0 |
| 20260508121111 | 22 | 15 | 0.0 | 1.6 | 0.00 | 0.00 | 0.00 | 73 | 1006.9 |
| 20260508120627 | 22 | 15 | 0.0 | 1.6 | 0.00 | 0.00 | 0.00 | 73 | 1006.9 |
| 20260508120046 | 22 | 15 | 0.0 | 1.6 | 0.00 | 0.00 | 0.00 | 74 | 1006.9 |
| 20260508115623 | 22 | 15 | 0.0 | 1.6 | 0.00 | 0.00 | 0.00 | 75 | 1006.8 |
| 20260508115015 | 22 | 15 | 0.0 | 1.6 | 0.00 | 0.00 | 0.00 | 76 | 1006.7 |
| 20260508114534 | 22 | 15 | 0.0 | 3.2 | 0.00 | 0.00 | 0.00 | 76 | 1006.6 |
| 20260508114059 | 22 | 15 | 0.0 | 3.2 | 0.00 | 0.00 | 0.00 | 77 | 1006.5 |
| 20260508113622 | 22 | 15 | 0.0 | 3.2 | 0.00 | 0.00 | 0.00 | 78 | 1006.5 |
| 20260508113018 | 23 | 342 | 0.0 | 0.0 | 0.00 | 0.00 | 0.00 | 79 | 1006.5 |
| 20260508112534 | 23 | 342 | 0.0 | 3.2 | 0.00 | 0.00 | 0.00 | 80 | 1006.4 |
| 20260508112054 | 23 | 342 | 0.0 | 3.2 | 0.00 | 0.00 | 0.00 | 80 | 1006.4 |
| 20260508111611 | 23 | 342 | 0.0 | 3.2 | 0.00 | 0.00 | 0.00 | 81 | 1006.3 |
| 20260508111019 | 23 | 342 | 1.6 | 3.2 | 0.00 | 0.00 | 0.00 | 81 | 1006.3 |
| 20260508110539 | 23 | 337 | 1.6 | 3.2 | 0.00 | 0.00 | 0.00 | 81 | 1006.2 |
| 20260508110004 | 23 | 331 | 0.0 | 0.0 | 0.00 | 0.00 | 0.00 | 80 | 1006.1 |
| 20260508105525 | 23 | 331 | 0.0 | 0.0 | 0.00 | 0.00 | 0.00 | 80 | 1006.1 |
| 20260508105110 | 23 | 331 | 0.0 | 0.0 | 0.00 | 0.00 | 0.00 | 80 | 1006.1 |
| 20260508104624 | 23 | 331 | 0.0 | 0.0 | 0.00 | 0.00 | 0.00 | 79 | 1006.0 |
| 20260508104017 | 23 | 331 | 0.0 | 1.6 | 0.00 | 0.00 | 0.00 | 79 | 1006.0 |
| 20260508103534 | 23 | 331 | 0.0 | 1.6 | 0.00 | 0.00 | 0.00 | 79 | 1005.9 |
| 20260508103100 | 24 | 331 | 0.0 | 4.8 | 0.00 | 0.00 | 0.00 | 78 | 1006.0 |
| 20260508102614 | 24 | 331 | 1.6 | 4.8 | 0.00 | 0.00 | 0.00 | 78 | 1006.0 |
| 20260508102013 | 24 | 319 | 0.0 | 3.2 | 0.00 | 0.00 | 0.00 | 78 | 1006.1 |
| 20260508101543 | 24 | 319 | 0.0 | 6.4 | 0.00 | 0.00 | 0.00 | 77 | 1006.2 |
| 20260508101041 | 24 | 319 | 1.6 | 6.4 | 0.00 | 0.00 | 0.00 | 77 | 1006.2 |
| 20260508100603 | 23 | 329 | 3.2 | 4.8 | 0.00 | 0.00 | 0.00 | 76 | 1006.1 |
| 20260508100037 | 23 | 111 | 1.6 | 3.2 | 0.00 | 0.00 | 0.00 | 75 | 1006.1 |
| 20260508095538 | 23 | 111 | 1.6 | 3.2 | 0.00 | 0.00 | 0.00 | 75 | 1006.1 |
| 20260508095106 | 23 | 112 | 0.0 | 0.0 | 0.00 | 0.00 | 0.00 | 75 | 1006.1 |
| 20260508094622 | 23 | 112 | 0.0 | 0.0 | 0.00 | 0.00 | 0.00 | 75 | 1006.1 |
| 20260508094019 | 24 | 112 | 0.0 | 0.0 | 0.00 | 0.00 | 0.00 | 75 | 1006.2 |
| 20260508093528 | 24 | 112 | 0.0 | 0.0 | 0.00 | 0.00 | 0.00 | 76 | 1006.2 |
| 20260508093058 | 24 | 112 | 0.0 | 0.0 | 0.00 | 0.00 | 0.00 | 76 | 1006.3 |
| 20260508092616 | 24 | 112 | 0.0 | 0.0 | 0.00 | 0.00 | 0.00 | 76 | 1006.3 |
| 20260508092021 | 24 | 112 | 0.0 | 0.0 | 0.00 | 0.00 | 0.00 | 76 | 1006.3 |
| 20260508091549 | 24 | 112 | 0.0 | 3.2 | 0.00 | 0.00 | 0.00 | 77 | 1006.4 |
| 20260508091103 | 24 | 112 | 0.0 | 3.2 | 0.00 | 0.00 | 0.00 | 77 | 1006.5 |
| 20260508090617 | 24 | 113 | 0.0 | 0.0 | 0.00 | 0.00 | 0.00 | 77 | 1006.5 |
| 20260508090040 | 24 | 113 | 0.0 | 3.2 | 0.00 | 0.00 | 0.00 | 77 | 1006.7 |
| 20260508085625 | 24 | 113 | 0.0 | 4.8 | 0.00 | 0.00 | 0.00 | 77 | 1006.7 |
| 20260508085018 | 25 | 113 | 1.6 | 3.2 | 0.00 | 0.00 | 0.00 | 77 | 1006.9 |
| 20260508084530 | 24 | 113 | 0.0 | 0.0 | 0.00 | 0.00 | 0.00 | 77 | 1006.9 |
| 20260508084056 | 24 | 113 | 0.0 | 0.0 | 0.00 | 0.00 | 0.00 | 77 | 1006.9 |
| 20260508083610 | 24 | 113 | 0.0 | 0.0 | 0.00 | 0.00 | 0.00 | 77 | 1007.0 |
| 20260508083005 | 24 | 113 | 0.0 | 0.0 | 0.00 | 0.00 | 0.00 | 77 | 1007.0 |
| 20260508082529 | 24 | 113 | 0.0 | 1.6 | 0.00 | 0.00 | 0.00 | 77 | 1007.0 |
| 20260508082058 | 24 | 113 | 0.0 | 4.8 | 0.00 | 0.00 | 0.00 | 77 | 1007.0 |
| 20260508081616 | 25 | 113 | 0.0 | 4.8 | 0.00 | 0.00 | 0.00 | 77 | 1007.1 |
| 20260508081003 | 25 | 113 | 1.6 | 4.8 | 0.00 | 0.00 | 0.00 | 78 | 1007.3 |
| 20260508080519 | 25 | 111 | 0.0 | 3.2 | 0.00 | 0.00 | 0.00 | 78 | 1007.4 |
| 20260508080104 | 25 | 111 | 0.0 | 4.8 | 0.00 | 0.00 | 0.00 | 79 | 1007.5 |
| 20260508075544 | 25 | 110 | 0.0 | 3.2 | 0.00 | 0.00 | 0.00 | 79 | 1007.7 |
| 20260508075104 | 25 | 111 | 0.0 | 3.2 | 0.00 | 0.00 | 0.00 | 79 | 1007.7 |
| 20260508074630 | 25 | 111 | 0.0 | 1.6 | 0.00 | 0.00 | 0.00 | 79 | 1007.8 |
| 20260508074011 | 25 | 111 | 0.0 | 3.2 | 0.00 | 0.00 | 0.00 | 79 | 1007.8 |
| 20260508073530 | 25 | 111 | 0.0 | 3.2 | 0.00 | 0.00 | 0.00 | 79 | 1007.8 |
| 20260508073106 | 25 | 111 | 0.0 | 3.2 | 0.00 | 0.00 | 0.00 | 79 | 1007.8 |
| 20260508072623 | 25 | 111 | 0.0 | 3.2 | 0.00 | 0.00 | 0.00 | 79 | 1007.9 |
| 20260508072011 | 25 | 111 | 0.0 | 0.0 | 0.00 | 0.00 | 0.00 | 80 | 1007.9 |
| 20260508071532 | 25 | 111 | 0.0 | 0.0 | 0.00 | 0.00 | 0.00 | 80 | 1007.9 |
| 20260508071109 | 25 | 111 | 0.0 | 0.0 | 0.00 | 0.00 | 0.00 | 80 | 1008.0 |
| 20260508070619 | 26 | 111 | 0.0 | 0.0 | 0.00 | 0.00 | 0.00 | 80 | 1008.0 |
| 20260508070036 | 26 | 111 | 0.0 | 0.0 | 0.00 | 0.00 | 0.00 | 80 | 1008.1 |
| 20260508065532 | 26 | 111 | 0.0 | 0.0 | 0.00 | 0.00 | 0.00 | 80 | 1008.1 |
| 20260508065056 | 26 | 111 | 0.0 | 0.0 | 0.00 | 0.00 | 0.00 | 80 | 1008.1 |
| 20260508064613 | 26 | 111 | 0.0 | 0.0 | 0.00 | 0.00 | 0.00 | 79 | 1008.0 |
| 20260508064015 | 26 | 111 | 0.0 | 0.0 | 0.00 | 0.00 | 0.00 | 79 | 1008.1 |
| 20260508063532 | 26 | 111 | 0.0 | 0.0 | 0.00 | 0.00 | 0.00 | 79 | 1008.2 |
| 20260508063100 | 26 | 111 | 0.0 | 0.0 | 0.00 | 0.00 | 0.00 | 79 | 1008.2 |
| 20260508062615 | 26 | 114 | 0.0 | 0.0 | 0.00 | 0.00 | 0.00 | 79 | 1008.2 |
| 20260508062011 | 26 | 114 | 0.0 | 0.0 | 0.00 | 0.00 | 0.00 | 78 | 1008.1 |
| 20260508061532 | 26 | 114 | 0.0 | 0.0 | 0.00 | 0.00 | 0.00 | 78 | 1008.1 |
| 20260508061056 | 26 | 114 | 0.0 | 0.0 | 0.00 | 0.00 | 0.00 | 78 | 1008.1 |
| 20260508060608 | 26 | 114 | 0.0 | 0.0 | 0.00 | 0.00 | 0.00 | 78 | 1008.2 |
| 20260508060004 | 26 | 114 | 0.0 | 0.0 | 0.00 | 0.00 | 0.00 | 78 | 1008.2 |
| 20260508055527 | 26 | 114 | 0.0 | 0.0 | 0.00 | 0.00 | 0.00 | 78 | 1008.3 |
| 20260508055101 | 26 | 114 | 0.0 | 0.0 | 0.00 | 0.00 | 0.00 | 79 | 1008.3 |
| 20260508054616 | 26 | 114 | 0.0 | 0.0 | 0.00 | 0.00 | 0.00 | 79 | 1008.3 |
| 20260508054013 | 26 | 114 | 0.0 | 0.0 | 0.00 | 0.00 | 0.00 | 79 | 1008.4 |
| 20260508053527 | 26 | 114 | 0.0 | 0.0 | 0.00 | 0.00 | 0.00 | 79 | 1008.4 |
| 20260508053102 | 26 | 114 | 0.0 | 1.6 | 0.00 | 0.00 | 0.00 | 79 | 1008.4 |
| 20260508052617 | 26 | 114 | 0.0 | 3.2 | 0.00 | 0.00 | 0.00 | 79 | 1008.4 |
| 20260508052011 | 26 | 114 | 1.6 | 3.2 | 0.00 | 0.00 | 0.00 | 79 | 1008.4 |
| 20260508051525 | 26 | 114 | 0.0 | 3.2 | 0.00 | 0.00 | 0.00 | 79 | 1008.5 |
| 20260508051047 | 26 | 114 | 0.0 | 3.2 | 0.00 | 0.00 | 0.00 | 79 | 1008.4 |
| 20260508050604 | 26 | 114 | 0.0 | 3.2 | 0.00 | 0.00 | 0.00 | 79 | 1008.5 |
| 20260508050005 | 26 | 114 | 0.0 | 3.2 | 0.00 | 0.00 | 0.00 | 79 | 1008.4 |
| 20260508045518 | 26 | 114 | 0.0 | 4.8 | 0.00 | 0.00 | 0.00 | 79 | 1008.3 |
| 20260508045059 | 26 | 114 | 0.0 | 4.8 | 0.00 | 0.00 | 0.00 | 79 | 1008.4 |
| 20260508044615 | 26 | 114 | 0.0 | 3.2 | 0.00 | 0.00 | 0.00 | 79 | 1008.3 |
| 20260508044004 | 26 | 115 | 0.0 | 4.8 | 0.00 | 0.00 | 0.00 | 79 | 1008.2 |
| 20260508043517 | 26 | 115 | 1.6 | 4.8 | 0.00 | 0.00 | 0.00 | 79 | 1008.2 |
| 20260508043053 | 26 | 113 | 1.6 | 6.4 | 0.00 | 0.00 | 0.00 | 79 | 1008.2 |
| 20260508042614 | 27 | 113 | 1.6 | 6.4 | 0.00 | 0.00 | 0.00 | 80 | 1008.1 |
| 20260508042133 | 27 | 149 | 1.6 | 4.8 | 0.00 | 0.00 | 0.00 | 80 | 1008.1 |
| 20260508041519 | 27 | 150 | 0.0 | 4.8 | 0.00 | 0.00 | 0.00 | 80 | 1008.1 |
| 20260508041036 | 27 | 163 | 1.6 | 3.2 | 0.00 | 0.00 | 0.00 | 80 | 1008.1 |
| 20260508040516 | 27 | 163 | 0.0 | 3.2 | 0.00 | 0.00 | 0.00 | 80 | 1008.1 |
| 20260508040037 | 27 | 163 | 1.6 | 3.2 | 0.00 | 0.00 | 0.00 | 79 | 1008.0 |
| 20260508035520 | 27 | 163 | 0.0 | 3.2 | 0.00 | 0.00 | 0.00 | 79 | 1008.0 |
| 20260508035021 | 27 | 165 | 1.6 | 3.2 | 0.00 | 0.00 | 0.00 | 80 | 1007.9 |
| 20260508034519 | 27 | 165 | 1.6 | 4.8 | 0.00 | 0.00 | 0.00 | 80 | 1007.9 |
| 20260508034006 | 27 | 174 | 1.6 | 9.7 | 0.00 | 0.00 | 0.00 | 80 | 1007.8 |
| 20260508033504 | 27 | 178 | 4.8 | 9.7 | 0.00 | 0.00 | 0.00 | 80 | 1007.8 |
| 20260508033007 | 27 | 211 | 3.2 | 11.3 | 0.00 | 0.00 | 0.00 | 80 | 1007.8 |
| 20260508032507 | 27 | 209 | 4.8 | 11.3 | 0.00 | 0.00 | 0.00 | 80 | 1007.8 |
| 20260508032011 | 27 | 191 | 4.8 | 11.3 | 0.00 | 0.00 | 0.00 | 80 | 1007.7 |
| 20260508031514 | 27 | 192 | 4.8 | 9.7 | 0.00 | 0.00 | 0.00 | 80 | 1007.7 |
| 20260508031023 | 27 | 198 | 6.4 | 12.9 | 0.00 | 0.00 | 0.00 | 80 | 1007.6 |
| 20260508030517 | 27 | 173 | 6.4 | 12.9 | 0.00 | 0.00 | 0.00 | 80 | 1007.6 |
| 20260508030021 | 27 | 189 | 4.8 | 11.3 | 0.00 | 0.00 | 0.00 | 80 | 1007.5 |
| 20260508025519 | 27 | 185 | 4.8 | 12.9 | 0.00 | 0.00 | 0.00 | 80 | 1007.4 |
| 20260508025020 | 27 | 234 | 6.4 | 12.9 | 0.00 | 0.00 | 0.00 | 80 | 1007.4 |
| 20260508024525 | 27 | 200 | 4.8 | 12.9 | 0.00 | 0.00 | 0.00 | 80 | 1007.3 |
| 20260508024005 | 27 | 173 | 4.8 | 12.9 | 0.00 | 0.00 | 0.00 | 80 | 1007.3 |
| 20260508023504 | 27 | 238 | 6.4 | 12.9 | 0.00 | 0.00 | 0.00 | 80 | 1007.2 |
| 20260508023010 | 27 | 200 | 3.2 | 16.1 | 0.00 | 0.00 | 0.00 | 80 | 1007.2 |
| 20260508022507 | 27 | 190 | 8.0 | 17.7 | 0.00 | 0.00 | 0.00 | 80 | 1007.1 |
| 20260508022010 | 27 | 180 | 8.0 | 12.9 | 0.00 | 0.00 | 0.00 | 80 | 1007.1 |
| 20260508021512 | 27 | 213 | 6.4 | 14.5 | 0.00 | 0.00 | 0.00 | 80 | 1007.1 |
| 20260508021004 | 27 | 212 | 8.0 | 12.9 | 0.00 | 0.00 | 0.00 | 80 | 1007.1 |
| 20260508020043 | 27 | 238 | 8.0 | 16.1 | 0.00 | 0.00 | 0.00 | 80 | 1007.0 |
| 20260508015533 | 27 | 239 | 8.0 | 12.9 | 0.00 | 0.00 | 0.00 | 80 | 1006.9 |
| 20260508015101 | 27 | 194 | 6.4 | 14.5 | 0.00 | 0.00 | 0.00 | 80 | 1007.0 |
| 20260508014622 | 27 | 205 | 8.0 | 16.1 | 0.00 | 0.00 | 0.00 | 80 | 1007.0 |
| 20260508014013 | 27 | 208 | 8.0 | 16.1 | 0.00 | 0.00 | 0.00 | 80 | 1006.9 |
| 20260508013532 | 27 | 192 | 8.0 | 16.1 | 0.00 | 0.00 | 0.00 | 80 | 1006.8 |
| 20260508013059 | 27 | 199 | 6.4 | 12.9 | 0.00 | 0.00 | 0.00 | 80 | 1006.8 |
| 20260508012616 | 27 | 211 | 3.2 | 12.9 | 0.00 | 0.00 | 0.00 | 79 | 1006.7 |
| 20260508012009 | 27 | 248 | 8.0 | 14.5 | 0.00 | 0.00 | 0.00 | 79 | 1006.8 |
| 20260508011532 | 27 | 234 | 8.0 | 14.5 | 0.00 | 0.00 | 0.00 | 79 | 1006.8 |
| 20260508011055 | 27 | 205 | 8.0 | 14.5 | 0.00 | 0.00 | 0.00 | 79 | 1006.7 |
| 20260508010612 | 27 | 221 | 6.4 | 12.9 | 0.00 | 0.00 | 0.00 | 79 | 1006.6 |
| 20260508010013 | 28 | 186 | 8.0 | 14.5 | 0.00 | 0.00 | 0.00 | 80 | 1006.5 |
| 20260508005529 | 28 | 194 | 6.4 | 14.5 | 0.00 | 0.00 | 0.00 | 80 | 1006.5 |
| 20260508005101 | 28 | 175 | 8.0 | 14.5 | 0.00 | 0.00 | 0.00 | 79 | 1006.5 |
| 20260508004616 | 28 | 164 | 6.4 | 14.5 | 0.00 | 0.00 | 0.00 | 79 | 1006.5 |
| 20260508004013 | 28 | 187 | 9.7 | 17.7 | 0.00 | 0.00 | 0.00 | 79 | 1006.5 |
| 20260508003532 | 28 | 180 | 6.4 | 17.7 | 0.00 | 0.00 | 0.00 | 78 | 1006.4 |
| 20260508003058 | 28 | 196 | 6.4 | 17.7 | 0.00 | 0.00 | 0.00 | 79 | 1006.4 |
| 20260508002622 | 28 | 259 | 8.0 | 14.5 | 0.00 | 0.00 | 0.00 | 78 | 1006.3 |
| 20260508002010 | 28 | 198 | 8.0 | 16.1 | 0.00 | 0.00 | 0.00 | 78 | 1006.3 |
| 20260508001531 | 28 | 213 | 9.7 | 19.3 | 0.00 | 0.00 | 0.00 | 77 | 1006.3 |
| 20260508001101 | 28 | 184 | 6.4 | 19.3 | 0.00 | 0.00 | 0.00 | 77 | 1006.3 |
| 20260508000617 | 28 | 185 | 6.4 | 17.7 | 0.00 | 0.00 | 0.00 | 78 | 1006.3 |